Wind_Speed
18 16 18 20 22 24 24 23 23 24 23 24 23 23 21 17 17 14 12 10 6 4 6 8 13 13 9 8 11 13 13 15 14 13 14 14 16 19 20 20 21 23 25
20 19 16 17 16 16 18 20 22 22 25 26 28 26 27 22 21 18 15 13 9 7 8 12 14 15 13 9 10 12 14 15 15 11 13 14 18 18 21 23 25 27 29
24 21 17 16 16 16 18 19 17 17 18 21 23 26 28 25 23 22 18 17 14 12 10 12 15 18 19 15 14 14 13 16 16 15 15 15 16 19 21 25 27 30 31
24 25 17 14 16 19 19 17 14 17 16 17 20 24 26 27 25 24 20 20 20 18 16 16 17 20 19 18 17 18 16 15 17 19 21 21 23 26 28 29 30 32 35
20 24 20 19 17 20 23 15 14 13 13 14 16 18 21 25 26 24 20 21 23 23 23 21 22 24 24 23 22 21 21 21 22 24 28 29 31 32 34 37 35 36 39
20 15 23 22 18 18 22 18 15 10 9 10 12 14 15 18 22 24 23 20 21 25 27 27 28 28 27 29 28 25 26 28 30 32 36 37 37 38 39 41 39 41 42
22 21 21 23 20 22 25 24 19 16 15 14 13 13 13 13 18 22 26 26 25 26 27 27 29 30 30 30 32 34 33 35 37 37 43 45 43 44 47 44 43 44 44
29 25 23 21 23 25 27 25 25 24 21 20 22 21 19 18 17 19 23 28 27 28 30 31 31 33 30 32 36 37 38 42 46 45 47 48 53 51 48 45 44 44 45
34 27 23 19 22 26 27 25 27 28 28 30 29 26 25 25 25 29 32 36 37 36 36 39 41 40 41 39 40 41 45 48 51 52 53 51 54 50 49 46 45 43 45
39 31 24 23 23 27 31 33 33 34 36 36 37 38 39 37 31 35 37 43 47 45 42 47 53 52 53 52 54 51 51 56 62 58 55 55 48 54 51 46 45 45 45
31 29 29 28 28 32 34 35 38 40 44 44 46 50 45 46 44 40 41 44 48 49 53 59 60 55 57 65 69 66 62 71 65 67 62 53 50 46 49 46 42 44 45
34 33 31 34 35 35 37 39 40 44 43 45 48 57 66 56 42 41 51 46 37 40 47 57 64 63 67 74 80 75 73 77 78 67 59 41 44 44 50 39 39 42 42
35 35 35 36 38 39 38 38 42 43 42 45 54 54 51 60 51 47 50 47 42 45 47 53 61 69 78 73 64 90 77 72 75 60 55 46 43 48 39 34 36 40 39
35 37 38 40 41 40 38 38 43 45 45 48 51 52 56 60 58 58 51 47 51 47 55 60 64 69 74 65 61 69 63 59 61 62 45 37 40 40 34 31 35 38 37
37 38 40 42 44 44 44 41 42 47 49 52 53 59 58 58 56 56 57 58 59 63 64 66 71 74 81 74 73 61 67 76 72 69 37 32 37 32 32 30 34 34 35
36 39 42 45 47 48 49 49 48 51 56 59 61 63 53 52 54 52 52 55 59 67 73 74 78 82 77 79 79 82 75 76 34 30 26 29 30 31 30 31 32 33 32
38 41 48 50 52 53 55 55 55 55 54 55 56 58 55 50 51 52 55 57 59 62 69 71 77 75 74 71 72 72 35 30 20 22 24 31 31 30 29 29 31 31 29
39 40 41 43 43 45 47 50 52 53 56 56 55 53 48 50 52 50 52 53 58 62 67 66 71 63 46 42 38 23 18 26 21 25 32 32 28 28 28 28 30 30 27
46 44 44 43 47 51 54 55 57 57 55 53 50 48 45 48 51 51 51 54 55 57 60 55 34 29 31 21 25 22 18 25 30 33 32 26 27 28 27 28 29 28 27
54 53 53 54 51 51 51 53 55 55 52 47 44 47 45 46 47 49 48 44 41 31 22 20 25 22 19 21 22 24 26 28 29 27 26 27 28 27 26 28 29 28 29
59 58 57 55 55 53 52 53 51 48 46 44 44 43 42 40 41 41 40 33 34 22 20 10 8 11 14 18 25 28 28 28 27 27 29 29 26 26 27 29 29 30 30
64 61 57 58 55 56 55 52 49 44 39 41 41 40 38 36 36 32 31 21 16 12 14 12 15 17 21 27 31 29 29 29 28 28 29 27 27 27 29 29 29 32 31
64 61 61 55 56 53 51 46 45 41 38 39 41 40 38 35 34 33 29 27 21 20 21 22 24 26 26 29 29 29 29 27 27 28 26 26 27 29 30 29 31 32 30
47 53 55 55 51 45 43 41 38 39 37 39 42 42 43 41 40 39 35 31 30 33 32 33 35 36 35 31 29 28 29 28 28 26 25 28 29 30 30 31 32 31 30
50 50 51 51 47 43 43 40 38 37 38 41 43 45 46 45 44 42 39 40 39 37 39 38 39 36 32 27 28 28 28 27 26 24 26 27 29 31 31 32 32 32 32
41 40 39 40 41 43 46 46 44 42 41 42 44 42 44 45 46 45 43 44 44 41 41 35 33 30 27 27 28 25 24 25 24 26 29 29 30 31 31 32 33 34 35
Wind_Direction
218 239 251 248 246 243 242 243 247 253 259 263 264 267 264 263 242 248 236 239 244 257 288 292 302 310 313 310 329 341 350 352 346 344 341 325 318 319 322 320 316 315 312
236 249 252 256 252 250 245 243 244 251 257 263 266 265 263 260 244 246 239 236 242 251 280 302 312 311 308 305 313 332 338 339 340 338 318 311 307 308 307 304 305 303 307
235 245 253 267 259 250 249 245 243 249 258 266 270 267 262 258 248 244 245 237 235 245 263 291 305 315 308 297 300 317 329 328 327 321 311 308 299 294 293 297 299 300 303
254 248 251 268 262 258 256 257 262 261 267 274 276 269 261 255 249 243 254 246 244 240 250 270 291 304 302 295 302 306 315 311 314 313 312 304 298 298 298 297 299 299 301
271 272 261 260 263 263 267 270 252 256 267 279 289 288 262 255 252 243 258 255 248 253 257 266 276 283 286 287 292 304 301 303 307 307 309 312 308 311 309 308 303 304 303
252 258 251 261 266 264 261 257 252 252 270 291 306 301 287 277 270 256 259 267 264 261 261 263 270 275 282 281 288 292 296 299 302 308 308 308 313 318 314 309 305 305 307
246 253 258 264 259 250 250 249 246 248 256 273 287 293 296 275 273 272 270 274 276 273 271 272 276 279 280 280 284 286 291 298 298 299 305 302 304 310 310 309 303 307 306
253 260 259 276 261 249 248 255 256 253 256 265 274 270 270 271 273 274 272 270 273 277 280 278 278 279 282 284 285 287 291 294 294 294 295 302 305 309 311 309 305 307 307
249 254 262 267 258 258 250 247 249 261 264 258 257 255 257 255 259 257 259 263 265 268 273 277 278 275 275 276 277 280 283 281 281 285 288 293 297 301 306 308 306 308 306
247 251 244 249 255 256 245 244 249 256 260 263 263 260 265 264 252 254 256 258 261 265 265 270 268 270 272 270 271 271 274 279 278 277 282 284 294 298 301 302 304 305 306
242 241 237 242 256 257 256 257 257 260 265 268 270 271 264 259 264 257 259 261 267 266 268 271 266 263 267 269 267 267 271 268 267 273 279 276 285 294 295 297 301 301 304
241 244 244 241 253 257 272 273 267 267 267 271 278 282 275 283 257 299 287 272 284 286 275 271 277 277 289 264 263 263 263 269 270 272 277 268 282 288 287 291 299 299 304
240 245 249 253 260 267 269 261 260 261 264 267 270 276 284 289 296 290 294 296 298 295 283 279 277 288 282 289 261 261 256 268 275 294 266 272 283 290 290 291 296 297 303
243 248 255 259 260 263 267 258 258 261 262 264 269 277 280 279 286 292 291 289 291 288 290 288 288 278 285 284 282 283 265 267 286 290 265 262 272 285 283 291 292 297 300
239 244 249 255 258 262 267 270 264 262 267 268 268 277 283 288 287 285 287 283 284 285 285 282 282 281 287 291 286 272 280 289 271 276 245 261 272 279 283 288 289 296 299
246 248 252 257 260 264 266 269 271 272 272 276 279 276 281 283 281 279 280 281 279 277 279 279 279 281 287 287 292 291 287 289 259 228 244 265 276 276 282 284 290 294 293
249 249 251 253 254 257 261 267 268 269 271 273 275 276 277 282 278 278 280 281 280 282 280 279 277 279 282 284 282 286 267 230 218 237 264 269 266 274 275 280 286 289 285
245 247 250 250 253 254 256 257 261 267 269 273 276 279 280 277 281 283 283 285 286 281 277 280 282 281 274 282 281 232 218 221 237 245 253 255 261 266 271 279 282 283 283
247 253 257 262 257 257 258 262 264 268 273 282 280 281 279 281 287 288 291 292 288 285 281 278 272 273 276 250 205 209 220 229 238 243 248 254 259 262 270 278 279 279 280
251 256 257 260 263 267 272 275 275 274 277 282 279 277 277 283 287 291 295 297 296 283 265 273 270 250 210 206 209 220 235 243 246 245 249 253 253 260 270 274 276 277 275
248 254 259 262 267 267 273 281 282 271 274 273 272 275 279 282 286 293 293 294 278 308 317 281 238 221 228 240 231 238 245 249 247 247 247 249 256 264 268 270 275 274 270
248 251 254 261 266 268 274 276 271 266 266 268 269 272 273 276 278 276 279 276 289 287 274 267 261 248 247 244 244 249 249 245 240 244 249 254 260 264 265 268 272 272 270
243 249 259 259 264 263 265 267 263 263 263 262 264 265 266 265 270 260 260 264 267 271 271 267 268 264 270 259 250 249 246 242 245 247 252 258 263 265 265 267 272 274 272
254 254 259 259 261 262 257 256 257 262 263 264 266 266 266 264 260 256 258 263 275 278 275 270 265 271 269 259 253 252 247 246 246 247 252 258 262 267 267 268 270 273 275
263 262 263 262 256 254 254 256 263 262 266 266 265 263 262 260 256 253 258 268 279 277 277 276 268 262 258 245 249 243 243 249 253 255 257 260 266 268 269 270 270 272 274
256 252 251 254 254 258 257 260 263 261 263 262 259 259 260 258 256 256 263 271 274 272 269 264 258 250 245 244 244 240 249 255 259 262 262 263 265 268 272 274 272 272 273
Height
5903 5905 5906 5907 5907 5908 5910 5911 5914 5915 5917 5918 5919 5919 5919 5919 5921 5922 5923 5924 5925 5925 5925 5925 5923 5923 5922 5921 5918 5916 5913 5912 5909 5908 5907 5906 5903 5900 5899 5895 5891 5888 5883
5900 5901 5902 5903 5904 5905 5906 5907 5909 5910 5911 5912 5913 5914 5914 5915 5916 5917 5918 5920 5922 5923 5922 5922 5921 5921 5919 5918 5916 5914 5911 5909 5907 5905 5904 5902 5899 5897 5893 5888 5884 5881 5880
5896 5898 5900 5901 5902 5903 5904 5904 5905 5906 5906 5907 5908 5908 5909 5911 5912 5913 5915 5917 5919 5919 5919 5919 5919 5918 5917 5915 5914 5911 5909 5906 5903 5900 5899 5897 5895 5891 5887 5884 5882 5878 5875
5893 5895 5897 5898 5899 5900 5901 5902 5904 5903 5903 5903 5902 5902 5903 5905 5907 5909 5912 5914 5915 5915 5916 5916 5916 5915 5913 5911 5910 5907 5905 5903 5900 5897 5894 5891 5888 5885 5882 5879 5876 5873 5867
5889 5891 5894 5894 5895 5895 5896 5898 5898 5899 5900 5900 5899 5899 5898 5900 5902 5905 5908 5909 5910 5911 5911 5911 5910 5909 5907 5906 5904 5903 5900 5897 5896 5894 5890 5886 5882 5880 5877 5872 5869 5863 5857
5884 5887 5888 5889 5890 5891 5892 5893 5894 5896 5897 5897 5897 5897 5897 5897 5900 5901 5902 5903 5904 5905 5905 5903 5902 5901 5900 5898 5897 5896 5895 5892 5890 5889 5886 5881 5877 5873 5869 5864 5860 5856 5851
5879 5881 5883 5885 5886 5886 5886 5887 5889 5891 5891 5893 5893 5894 5894 5894 5895 5897 5896 5896 5897 5896 5895 5895 5893 5892 5892 5891 5890 5887 5886 5884 5881 5879 5875 5871 5869 5866 5862 5857 5852 5849 5843
5872 5874 5877 5879 5881 5881 5882 5884 5885 5886 5887 5888 5888 5887 5887 5888 5889 5890 5890 5889 5889 5889 5887 5886 5885 5883 5884 5881 5879 5877 5877 5876 5873 5869 5865 5862 5859 5856 5851 5848 5844 5839 5835
5867 5869 5871 5872 5873 5875 5878 5879 5877 5877 5879 5879 5879 5880 5880 5881 5881 5881 5881 5880 5879 5879 5879 5878 5875 5874 5872 5871 5867 5866 5865 5862 5856 5856 5855 5852 5848 5847 5844 5840 5836 5830 5826
5861 5864 5864 5865 5866 5869 5870 5870 5870 5870 5870 5870 5872 5873 5873 5872 5871 5871 5869 5866 5867 5870 5870 5865 5860 5862 5861 5859 5854 5852 5850 5848 5844 5844 5841 5841 5839 5838 5835 5830 5826 5823 5817
5851 5855 5857 5858 5860 5860 5861 5863 5863 5864 5863 5864 5864 5865 5863 5861 5862 5864 5862 5856 5856 5856 5855 5850 5845 5848 5847 5843 5836 5834 5837 5827 5828 5829 5831 5829 5828 5825 5824 5821 5817 5814 5809
5842 5845 5849 5851 5852 5853 5854 5855 5855 5855 5855 5856 5857 5855 5845 5847 5847 5850 5854 5850 5846 5838 5835 5836 5831 5833 5829 5818 5813 5815 5813 5807 5807 5813 5815 5816 5816 5814 5814 5811 5808 5806 5801
5834 5837 5839 5841 5843 5844 5846 5845 5846 5846 5846 5847 5844 5844 5842 5838 5839 5841 5839 5832 5826 5823 5821 5815 5816 5816 5800 5791 5796 5787 5792 5793 5791 5798 5806 5805 5806 5805 5803 5801 5799 5798 5792
5824 5827 5829 5831 5833 5834 5835 5835 5835 5836 5836 5835 5835 5834 5833 5831 5829 5826 5825 5817 5812 5807 5810 5805 5804 5799 5796 5802 5791 5777 5777 5785 5786 5786 5791 5795 5795 5794 5794 5789 5790 5789 5784
5815 5818 5820 5821 5822 5824 5824 5824 5825 5824 5824 5824 5824 5823 5821 5818 5815 5811 5807 5804 5800 5797 5794 5793 5791 5787 5785 5780 5776 5776 5774 5771 5769 5772 5779 5782 5783 5784 5782 5780 5782 5780 5776
5803 5806 5808 5810 5811 5812 5812 5812 5813 5813 5812 5810 5809 5808 5808 5806 5802 5799 5796 5791 5788 5784 5780 5779 5775 5769 5766 5766 5760 5754 5752 5754 5751 5759 5767 5770 5772 5772 5772 5773 5772 5770 5767
5791 5793 5795 5797 5798 5798 5799 5800 5800 5799 5797 5796 5794 5793 5792 5792 5788 5785 5781 5779 5776 5771 5766 5764 5758 5757 5754 5752 5749 5740 5735 5744 5748 5753 5757 5762 5761 5761 5763 5764 5763 5761 5759
5779 5781 5782 5783 5783 5784 5785 5785 5784 5783 5782 5781 5779 5777 5776 5776 5774 5770 5767 5765 5761 5752 5742 5739 5735 5736 5733 5732 5732 5733 5734 5739 5743 5746 5748 5750 5750 5753 5755 5755 5754 5753 5751
5766 5767 5769 5769 5769 5769 5768 5768 5768 5767 5767 5766 5764 5762 5761 5760 5759 5755 5751 5747 5740 5732 5725 5723 5717 5716 5718 5721 5724 5728 5731 5734 5736 5738 5740 5740 5742 5745 5746 5747 5747 5744 5742
5753 5754 5754 5753 5753 5753 5752 5751 5752 5752 5751 5750 5749 5748 5747 5745 5743 5740 5736 5732 5726 5717 5712 5711 5710 5710 5713 5716 5720 5724 5726 5726 5728 5728 5729 5732 5735 5736 5737 5738 5738 5735 5735
5738 5739 5741 5740 5740 5740 5738 5738 5738 5738 5736 5735 5734 5733 5733 5732 5730 5727 5725 5721 5718 5718 5714 5710 5712 5713 5713 5715 5717 5717 5717 5718 5719 5720 5723 5726 5727 5728 5729 5731 5729 5728 5727
5722 5724 5725 5725 5726 5726 5725 5725 5725 5725 5723 5723 5723 5721 5721 5720 5719 5719 5720 5717 5714 5712 5714 5712 5712 5712 5712 5712 5712 5712 5710 5711 5712 5715 5716 5718 5719 5721 5723 5722 5720 5720 5718
5707 5710 5713 5712 5712 5712 5712 5712 5712 5712 5711 5712 5712 5712 5711 5710 5710 5711 5710 5709 5707 5706 5705 5705 5706 5705 5705 5705 5705 5705 5705 5706 5707 5709 5710 5711 5712 5714 5713 5712 5712 5711 5709
5693 5695 5697 5697 5697 5696 5697 5697 5698 5699 5699 5700 5702 5702 5702 5700 5699 5700 5700 5699 5697 5696 5697 5696 5696 5696 5695 5695 5697 5697 5698 5699 5699 5699 5700 5702 5703 5704 5703 5704 5702 5700 5699
5680 5680 5681 5682 5682 5682 5683 5684 5684 5685 5687 5688 5689 5689 5689 5688 5688 5689 5689 5689 5688 5687 5685 5684 5685 5685 5685 5684 5687 5688 5689 5689 5691 5690 5690 5692 5694 5695 5694 5693 5691 5691 5690
5665 5666 5666 5668 5668 5668 5669 5670 5670 5672 5673 5674 5675 5676 5678 5678 5678 5677 5677 5677 5677 5676 5675 5672 5673 5676 5676 5677 5679 5679 5679 5681 5681 5682 5682 5683 5684 5683 5682 5682 5682 5682 5681